カタログに戻る

CHECKMATE 1

運用中軍事PO
NORAD 56168·PAYLOAD·🇺🇸 United States

打ち上げ Apr 2, 2023 から Vandenberg Space Force Base

Loading…

次のパス (今後24時間)

TLE

最新Source: Space-Track

元期: Sep 14, 2026, 04:36 UTC

1 56168U 23050G   26257.19213473  .00000068  00000-0  50350-4 0  9999
2 56168  81.0080 346.6181 0012260 107.8795 252.3700 13.84958852174411

AllMySatでCHECKMATE 1をリアルタイム追跡

Download on the App Store